Home   Weather   City of Melbourne   Past weeks
Flag for USA

Past Weather in City of Melbourne, Kentucky, USA — Yesterday and Last 2 Weeks

Now
93 °F

Passing clouds.


Feels Like: 102 °F
Forecast: 92 / 75 °F
Wind: 10 mph from Southwest

Location: Cincinnati Municipal Airport Lunken Field

Current Time: Jul 20, 2019 at 6:41:06 pm

Latest Report: Jul 20, 2019 at 5:53 pm


Visibility: 10 mi

Pressure: 29.93 "Hg

Humidity: 52%

Dew Point: 73 °F

Location of City of MelbourneLocation

Past Weather in City of Melbourne — Graph

°F

City of Melbourne Temperature Yesterday

Maximum temperature yesterday: 92 °F (at 4:53 pm)
Minimum temperature yesterday: 72 °F (at 4:00 am)
Average temperature yesterday: 82 °F

High & Low Weather Summary for the Past Weeks

 TemperatureHumidityPressure
High93 °F (Jul 20, 2:53 pm)100% (Jul 6, 2:53 am)30.15 "Hg (Jul 6, 2:53 am)
Low61 °F (Jul 13, 4:53 am)33% (Jul 14, 2:53 pm)29.80 "Hg (Jul 11, 5:53 pm)
Average78 °F79%29.97 "Hg
* Reported Jul 5 4:53 pm — Jul 20 4:53 pm, City of Melbourne. Weather by CustomWeather, © 2019

Note: Actual official high and low records may vary slightly from our data, if they occured in-between our weather recording intervals... More about our weather records

Advertising

City of Melbourne Weather History for the Previous 24 Hours

Scroll right to see more
 ConditionsComfort  
Time TempWeatherWind HumidityBarometerVisibility
4:53 pm
Sat, Jul 20
91 °FPassing clouds.8 mph56%29.93 "Hg10 mi
3:53 pm93 °FPassing clouds.14 mph52%29.93 "Hg10 mi
2:53 pm93 °FSunny.16 mph52%29.93 "Hg10 mi
1:53 pm91 °FSunny.16 mph57%29.94 "Hg10 mi
12:53 pm90 °FPassing clouds.12 mph61%29.96 "Hg10 mi
11:53 am89 °FPassing clouds.7 mph65%29.97 "Hg10 mi
10:53 am88 °FSunny.3 mph70%29.98 "Hg10 mi
9:53 am85 °FSunny.6 mph75%29.99 "Hg10 mi
8:53 am80 °FSunny.8 mph90%30.01 "Hg9 mi
7:53 am77 °FFog.No wind94%30.03 "Hg6 mi
7:07 am74 °FFog.No wind97%30.03 "Hg6 mi
7:00 am74 °FFog.No wind97%30.02 "Hg2 mi
5:53 am74 °FFog.No wind100%29.99 "Hg5 mi
5:13 am73 °FFog.No wind100%30.00 "Hg3 mi
5:02 am75 °FFog.No wind96%29.99 "Hg2 mi
4:53 am74 °FFog.No wind100%29.96 "Hg1 mi
3:53 am75 °FClear.No wind96%29.96 "Hg7 mi
2:53 am75 °FFog.No wind96%29.96 "Hg6 mi
1:53 am77 °FClear.No wind94%29.96 "Hg8 mi
12:53 am77 °FClear.6 mph94%29.96 "Hg8 mi
11:53 pm
Fri, Jul 19
79 °FClear.No wind90%29.97 "Hg10 mi
10:53 pm79 °FClear.No wind94%29.97 "Hg9 mi
9:53 pm82 °FOvercast.No wind85%29.94 "Hg10 mi
8:53 pm83 °FPassing clouds.6 mph85%29.91 "Hg10 mi
7:53 pm88 °FSunny.8 mph70%29.92 "Hg10 mi
6:53 pm90 °FPassing clouds.9 mph61%29.93 "Hg10 mi
Weather by CustomWeather, © 2019

See weather overview